Погода в Полоннаруве

Шри-Ланка     7°56′23″N   81°00′04″E
темп.,
°C
ветер,
м/с
пор.,
м/с
влажн.,
%
обл.,
%
осадки,
мм/ч
давл.,
гПа
погр.,
м
12 августа, пт
пт1223:30+27зюз51165100 0.0 1009627
02:30+27зюз61370100 0.0 1007728
05:30+27зюз6127018 0.0 1007842
08:30+30зюз812590 0.0 10081043
11:30+35з81040100 0.0 10071838
14:30+35з783816 0.0 10052256
17:30+32з5747100 0.0 10061474
20:30+28зюз4961100 0.0 1008520
13 августа, сб
сб1323:30+27зюз51062100 0.0 1008514
02:30+27зюз41066100 0.0 1006473
05:30+26зюз41068100 0.0 1006462
08:30+30юз575569 0.0 1008788
11:30+35з6540100 0.0 10071808
14:30+36з643796 0.1 10042500
17:30+32зюз454878 0.1 1005982
20:30+28зюз1466100 0.2 1008173
14 августа, вс
вс1423:30+26юз1275100 0.2 100796
02:30+25зюз3677100 0.0 1006230
05:30+25зюз2573100 0.0 1006228
08:30+29зюз3556100 0.0 1008649
11:30+34з5542100 0.0 10081608
14:30+36з5437100 0.0 10052200
17:30+32з5648100 0.1 1006900
20:30+27зсз3570100 0.4 1009233
15 августа, пн
пн1523:30+25зюз2380100 0.4 1008113
02:30+24зюз2580100 0.0 1006151
05:30+24зюз257886 0.0 1007151
08:30+30ююз235444 0.0 1009608
11:30+35юв2239100 0.0 10081897
14:30+34всв4343100 0.3 10051507
17:30+31вюв3556100 0.7 1006330
20:30+27ссв1182100 1.9 100935
16 августа, вт
вт1623:30+25ссз118792 2.1 100919
02:30+24зсз22917 0.0 100839
05:30+23з249475 0.3 1008130
08:30+28зюз226986 0.0 1010453
11:30+36ссз013913 0.0 10091797
14:30+35с223899 0.2 10052062
17:30+30всв245779 0.4 1007300
20:30+25св248837 2.3 101094